Flag for Germany Weather past 2 weeks in Waren (Müritz), Mecklenburg-Western Pomerania, Germany

Now
39 °F

Low clouds.


Feels Like: 32 °F
Forecast: 35 / 43 °F
Wind: 13 mph from Southwest

Location: Laage

Current Time: Mar 1, 2015 at 2:25:04 PM

Latest Report: Mar 1, 2015 at 1:20 PM


Visibility: 5 mi

Pressure: 29.47 "Hg

Humidity: 93%

Dew point: 37 °F

Location of Waren (Müritz)Location

Historic Weather in Waren (Müritz) — Graph

°F

Waren (Müritz) temperature yesterday

Maximum temperature yesterday: 41 °F (at 12:20 PM)
Minimum temperature yesterday: 34 °F (at 6:20 AM)
Average temperature yesterday: 37 °F

Past Weeks' High & Low Weather Summary

 TemperatureHumidityPressure
High48 °F (Feb 26, 1:20 PM)100% (Feb 14, 7:20 PM)30.66 "Hg (Feb 14, 7:20 PM)
Low27 °F (Feb 17, 5:20 AM)43% (Feb 19, 1:20 PM)29.24 "Hg (Feb 21, 2:20 PM)
Average37 °F82%29.96 "Hg
* Reported Feb 14 12:20 PM — Mar 1 12:20 PM, Waren (Müritz), Weather by CustomWeather, © 2015

Note: Actual official high and low records may vary slightly from our data, if they occured in-between our weather recording intervals... More about our weather records

Advertising

Waren (Müritz) weather history for previous 24 hours

 ConditionsComfort  
Time TempWeatherWind HumidityBarometerVisibility
12:20 PM
Sun, Mar 1
37 °FDrizzle. Partly sunny.14 mph100%29.47 "Hg4 mi
11:20 AM37 °FDrizzle. Partly sunny.13 mph93%29.50 "Hg4 mi
10:20 AM36 °FLight rain. Partly sunny.10 mph100%29.50 "Hg4 mi
9:20 AM36 °FRain. Partly sunny.12 mph93%29.53 "Hg5 mi
8:20 AM36 °FLight rain. Broken clouds.13 mph81%29.56 "HgN/A
7:20 AM37 °FLight rain. Partly sunny.10 mph70%29.59 "HgN/A
6:20 AM36 °FPassing clouds.12 mph75%29.59 "HgN/A
5:20 AM36 °FPassing clouds.10 mph75%29.65 "HgN/A
4:20 AM36 °FPartly cloudy.9 mph70%29.68 "HgN/A
3:20 AM34 °FPassing clouds.8 mph75%29.71 "HgN/A
2:20 AM36 °FPassing clouds.8 mph70%29.77 "HgN/A
1:20 AM34 °FPassing clouds.7 mph75%29.80 "HgN/A
12:20 AM34 °FPassing clouds.7 mph75%29.83 "HgN/A
11:20 PM
Sat, Feb 28
36 °FPassing clouds.7 mph70%29.86 "HgN/A
10:20 PM36 °FPassing clouds.8 mph75%29.92 "HgN/A
9:20 PM34 °FChilly.5 mph81%29.95 "HgN/A
8:20 PM36 °FPassing clouds.6 mph75%29.95 "HgN/A
7:20 PM36 °FPassing clouds.6 mph75%29.98 "HgN/A
6:20 PM37 °FPassing clouds.6 mph70%29.98 "HgN/A
5:20 PM39 °FPartly sunny.8 mph65%29.98 "HgN/A
4:20 PM41 °FPartly sunny.10 mph61%30.01 "HgN/A
3:20 PM41 °FBroken clouds.9 mph61%30.04 "HgN/A
2:20 PM41 °FPartly sunny.8 mph66%30.04 "HgN/A
Weather by CustomWeather, © 2015

See weather overviewHow to use our weather pages